EW5461 Weather Reports


time (UTC)temp
C
wind
direction
speed
KPH
gust
KPH
rain 1hr
cm
rain 24hr
cm
rain mn
cm
humidity
%
barometer
mb
20260906223025 38 135 0.0 9.7 0.00 0.00 0.00 39 1008.4
20260906221529 38 47 1.6 9.7 0.00 0.00 0.00 40 1008.5
20260906220032 38 78 1.6 6.4 0.00 0.00 0.00 40 1008.6
20260906214521 38 82 1.6 6.4 0.00 0.00 0.00 40 1008.7
20260906213018 38 95 1.6 14.5 0.00 0.00 0.00 39 1009.0
20260906211514 38 51 1.6 6.4 0.00 0.00 0.00 40 1009.1
20260906210013 37 105 1.6 8.0 0.00 0.00 0.00 41 1009.4
20260906204510 37 161 1.6 14.5 0.00 0.00 0.00 42 1009.6
20260906203011 37 72 1.6 11.3 0.00 0.00 0.00 43 1009.8
20260906201507 37 40 3.2 9.7 0.00 0.00 0.00 42 1009.8
20260906200005 38 112 1.6 12.9 0.00 0.00 0.00 42 1009.9
20260906194502 38 107 1.6 14.5 0.00 0.00 0.00 42 1010.1
20260906193100 37 123 3.2 11.3 0.00 0.00 0.00 44 1010.2
20260906191609 37 107 4.8 11.3 0.00 0.00 0.00 46 1010.4
20260906190054 36 156 3.2 14.5 0.00 0.00 0.00 46 1010.5
20260906184554 36 30 1.6 9.7 0.00 0.00 0.00 47 1010.7
20260906183046 36 22 1.6 9.7 0.00 0.00 0.00 48 1010.9
20260906181558 36 71 1.6 8.0 0.00 0.00 0.00 49 1011.2
20260906180041 36 142 1.6 8.0 0.00 0.00 0.00 49 1011.3
20260906174537 36 162 3.2 16.1 0.00 0.00 0.00 49 1011.6
20260906173034 35 109 1.6 9.7 0.00 0.00 0.00 49 1012.0
20260906171535 35 51 3.2 12.9 0.00 0.00 0.00 49 1012.0
20260906170026 35 102 1.6 9.7 0.00 0.00 0.00 51 1012.2
20260906164523 34 148 1.6 11.3 0.00 0.00 0.00 53 1012.4
20260906163026 34 110 1.6 9.7 0.00 0.00 0.00 53 1012.5
20260906161520 33 117 3.2 9.7 0.00 0.00 0.00 55 1012.5
20260906160014 33 113 1.6 8.0 0.00 0.00 0.00 58 1012.5
20260906154511 32 159 0.0 4.8 0.00 0.00 0.00 61 1012.5
20260906153008 32 159 1.6 8.0 0.00 0.00 0.00 63 1012.5
20260906151508 31 32 1.6 9.7 0.00 0.00 0.00 63 1012.3
20260906150005 31 162 0.0 3.2 0.00 0.00 0.00 65 1012.1
20260906144501 31 162 0.0 8.0 0.00 0.00 0.00 66 1012.0
20260906143059 30 163 3.2 8.0 0.00 0.00 0.00 67 1012.1
20260906141559 30 48 0.0 0.0 0.00 0.00 0.00 69 1012.2
20260906140105 28 48 0.0 0.0 0.00 0.00 0.00 72 1012.2
20260906134604 28 48 0.0 3.2 0.00 0.00 0.00 75 1012.0
20260906133055 27 135 0.0 1.6 0.00 0.00 0.00 78 1012.0
20260906131552 26 110 1.6 4.8 0.00 0.00 0.00 81 1012.0
20260906130108 25 171 0.0 4.8 0.00 0.00 0.00 82 1012.1
20260906124553 25 171 0.0 1.6 0.00 0.00 0.00 82 1012.0
20260906123049 25 171 0.0 0.0 0.00 0.00 0.00 82 1011.9
20260906121557 25 171 0.0 0.0 0.00 0.00 0.00 81 1011.7
20260906120044 25 171 0.0 1.6 0.00 0.00 0.00 81 1011.4
20260906114552 25 171 0.0 0.0 0.00 0.00 0.00 80 1011.4
20260906113046 25 171 0.0 0.0 0.00 0.00 0.00 80 1011.2
20260906111539 26 171 0.0 1.6 0.00 0.00 0.00 79 1011.1
20260906110037 26 171 0.0 1.6 0.00 0.00 0.00 79 1010.9
20260906104537 26 171 0.0 0.0 0.00 0.00 0.00 79 1010.8
20260906103035 26 171 0.0 0.0 0.00 0.00 0.00 78 1010.9
20260906101534 26 171 0.0 0.0 0.00 0.00 0.00 77 1010.8
20260906100033 26 171 0.0 0.0 0.00 0.00 0.00 77 1010.7
20260906094530 26 171 0.0 3.2 0.00 0.00 0.00 76 1010.6
20260906093029 27 171 0.0 3.2 0.00 0.00 0.00 75 1010.4
20260906091533 27 171 0.0 6.4 0.00 0.00 0.00 75 1010.3
20260906090026 27 171 3.2 8.0 0.00 0.00 0.00 75 1010.2
20260906084530 27 171 1.6 8.0 0.00 0.00 0.00 74 1010.2
20260906083023 27 158 3.2 9.7 0.00 0.00 0.00 74 1010.1
20260906081524 27 158 3.2 9.7 0.00 0.00 0.00 74 1010.1
20260906080018 27 168 4.8 8.0 0.00 0.00 0.00 73 1010.4
20260906061544 28 178 3.2 8.0 0.00 0.00 0.00 70 1010.7
20260906054539 29 161 3.2 9.7 0.00 0.00 0.00 69 1010.8
20260906053038 29 211 3.2 9.7 0.00 0.00 0.00 69 1010.8
20260906051535 29 167 0.0 6.4 0.00 0.00 0.00 69 1011.0
20260906050031 -17 0.0 0.0 0.00 0.00 0.00 1011.0
20260906044528 -17 0.0 0.0 0.00 0.00 0.00 1010.7
20260906043025 -17 0.0 0.0 0.00 0.00 0.00 1010.8
20260906041526 -17 0.0 0.0 0.00 0.00 0.00 1010.7
20260906040025 -17 0.0 0.0 0.00 0.00 0.00 1010.7
20260906034512 -17 0.0 0.0 0.00 0.00 0.00 1010.7
20260906033004 -17 0.0 0.0 0.00 0.00 0.00 1010.7
20260906031625 -17 0.0 0.0 0.00 0.00 0.00 1010.6
20260906030056 -17 0.0 0.0 0.00 0.00 0.00 1010.6
20260906024556 -17 0.0 0.0 0.00 0.00 0.00 1010.4
20260906023105 -17 0.0 0.0 0.00 0.00 0.00 1010.1
20260906021543 -17 0.0 0.0 0.00 0.00 0.00 1009.9
20260906020048 -17 0.0 0.0 0.00 0.00 0.00 1009.6
20260906014534 -17 0.0 0.0 0.00 0.00 0.00 1009.3
20260906013029 -17 0.0 0.0 0.00 0.00 0.00 1009.0
20260906011525 -17 0.0 0.0 0.00 0.00 0.00 1008.7
20260906010022 -17 0.0 0.0 0.00 0.00 0.00 1008.6
20260906004516 -17 0.0 0.0 0.00 0.00 0.00 1008.6
20260906003012 -17 0.0 0.0 0.00 0.00 0.00 1008.6
20260906001508 -17 0.0 0.0 0.00 0.00 0.00 1008.5
20260906000005 37 142 3.2 11.3 0.00 0.00 0.00 40 1008.4
20260905234503 37 88 1.6 6.4 0.00 0.00 0.00 40 1008.3
20260905233003 38 104 1.6 4.8 0.00 0.00 0.00 40 1008.3
20260905231504 37 139 0.0 11.3 0.00 0.00 0.00 40 1008.3
20260905230002 38 157 1.6 9.7 0.00 0.00 0.00 38 1008.2
20260905224501 38 74 1.6 8.0 0.00 0.00 0.00 38 1008.3